Regional Weather Roundup
Issued by NWS

Home | Current Version | Previous Version | Text Only | Print | Product List | Glossary On
Versions: 1 2 3 4 5 6 7 8 9 10 11 12 13 14 15 16 17 18 19 20 21 22 23 24 25 26 27 28 29 30 31 32 33 34 35 36 37 38 39 40 41 42 43 44 45 46 47 48 49 50
000
ASCA42 TJSJ 241710
RWRPR
PUERTO RICO/U.S. VIRGIN ISLANDS HOURLY WEATHER ROUNDUP
NATIONAL WEATHER SERVICE SAN JUAN PR
100 PM AST SUN MAY 24 2015

PRZ001-004-241800-
PUERTO RICO

CITY           SKY/WX    TMP DP  RH WIND       PRES   REMARKS
SAN JUAN LMM   MOSUNNY   86  73  66 E23       30.07F HX  93
PONCE          MOSUNNY   91  70  49 SE14G25   30.01F HX  97
AGUADILLA      MOSUNNY   88  70  55 E23G31    30.08F HX  92
CEIBA          MOSUNNY   88  72  58 E10       30.09F HX  94
$$

PRZ006-007-241800-
U.S. VIRGIN ISLANDS

CITY           SKY/WX    TMP DP  RH WIND       PRES   REMARKS
CHARLOTTE AMA  CLOUDY    86  72  62 SE16      30.06F HX  92
CHRISTIANSTED  PTSUNNY   88  72  58 E18G24    30.07F HX  94
$$

HOURLY WEATHER ROUNDUP FOR THE NEWS MEDIA

CITY           SKY/WX    TMP DP  RH WIND       PRES   REMARKS
ORLANDO        PTSUNNY   87  71  58 E16       30.20F HX  93
NEW YORK       PTSUNNY   70  51  51 S16       30.33F
NEWARK         PTSUNNY   80  37  21 NW7G17    30.30F
CHICAGO        CLOUDY    72  51  47 E8        30.12F
HARTFORD       SUNNY     74  45  35 S15       30.25F
BOSTON         SUNNY     80  37  21 SW14G22   30.20F
DALLAS         CLOUDY    71  66  84 W12       29.89R
PHILADELPHIA   PTSUNNY   74  52  46 W9        30.33F
LOS ANGELES    PTSUNNY   62  51  67 SW5       30.03S
WASHINGTON DC  MOSUNNY   77  55  46 S6        30.35S


USA.gov is the U.S. government's official web portal to all federal, state and local government web resources and services.